Weather History for Glencoe, MN

Change the Weather History Date:

Wednesday, July 10, 2013

  Actual Average (KHCD) Record (KHCD)
Temperature  
Mean Temperature 70 °F -  
Max Temperature 79 °F 84 °F 100 °F (1980)
Min Temperature 60 °F 61 °F 44 °F (1996)
Cooling Degree Days 4    
Growing Degree Days 20 (Base 50)    
Moisture  
Dew Point 55 °F    
Average Humidity 61    
Maximum Humidity 82    
Minimum Humidity 37    
Precipitation  
Precipitation 0.00 in - - ()
Sea Level Pressure  
Sea Level Pressure 30.04 in    
Wind  
Wind Speed 9 mph (NW)    
Max Wind Speed 14 mph    
Max Gust Speed 20 mph    
Visibility 10 miles    
Events      
Averages and records for this station are not official NWS values.
T = Trace of Precipitation, MM = Missing Value Source: NWS Daily Summary

Daily Weather History Graph

Daily Weather History Graph

Search for Another Location

Airport:

Trip Planner

Search our weather history database for the weather conditions in past years. The results will help you decide how hot, cold, wet, or windy it might be!

Date:

Astronomy

Jul. 10, 2013 Rise Set
Actual Time 5:40 AM CDT 9:02 PM CDT
Civil Twilight 5:04 AM CDT 9:38 PM CDT
Nautical Twilight 4:17 AM CDT 10:25 PM CDT
Astronomical Twilight 3:17 AM CDT 11:24 PM CDT
Moon 8:10 AM CDT (7/10) 10:03 PM CDT (7/10)
Length of Visible Light 16h 33m
Length of Day
15h 21m
Waxing Crescent, 5% of the Moon is Illuminated
Jul 10
Waxing Crescent
Jul 15
First Quarter
Jul 22
Full
Jul 29
Last Quarter
Aug 6
New

Hourly Weather History & Observations

Time (CDT) Temp. Dew Point Humidity Pressure Visibility Wind Dir Wind Speed Gust Speed Precip Events Conditions
12:14 AM 70.3 °F 61.3 °F 73% 29.97 in 10.0 mi WNW 13.8 mph - N/A   Clear
12:34 AM 69.8 °F 61.5 °F 75% 29.97 in 10.0 mi WNW 11.5 mph 18.4 mph N/A   Clear
12:54 AM 68.9 °F 61.2 °F 76% 29.97 in 10.0 mi WNW 10.4 mph - N/A   Clear
1:15 AM 68.2 °F 61.0 °F 78% 29.98 in 10.0 mi NW 11.5 mph - N/A   Clear
1:34 AM 67.6 °F 60.4 °F 78% 29.98 in 10.0 mi WNW 8.1 mph - N/A   Clear
1:55 AM 66.9 °F 58.8 °F 75% 29.98 in 10.0 mi NW 9.2 mph - N/A   Clear
2:14 AM 66.4 °F 56.7 °F 71% 29.99 in 10.0 mi NW 11.5 mph - N/A   Clear
2:34 AM 65.7 °F 55.6 °F 70% 30.00 in 10.0 mi NW 10.4 mph 18.4 mph N/A   Clear
2:54 AM 65.3 °F 54.9 °F 69% 30.00 in 10.0 mi NW 11.5 mph 18.4 mph N/A   Clear
3:14 AM 64.6 °F 54.5 °F 70% 30.01 in 10.0 mi NW 9.2 mph - N/A   Clear
3:34 AM 63.9 °F 54.5 °F 72% 30.02 in 10.0 mi NW 9.2 mph - N/A   Clear
3:54 AM 63.5 °F 54.7 °F 73% 30.02 in 10.0 mi WNW 9.2 mph - N/A   Clear
4:14 AM 63.3 °F 54.7 °F 73% 30.03 in 10.0 mi NW 8.1 mph - N/A   Clear
4:34 AM 62.6 °F 54.9 °F 76% 30.03 in 10.0 mi NW 8.1 mph - N/A   Clear
4:55 AM 62.4 °F 55.0 °F 77% 30.04 in 10.0 mi NW 6.9 mph - N/A   Clear
5:14 AM 61.7 °F 55.0 °F 79% 30.04 in 10.0 mi WNW 5.8 mph - N/A   Clear
5:34 AM 61.0 °F 55.0 °F 81% 30.06 in 10.0 mi WNW 5.8 mph - N/A   Clear
5:54 AM 60.8 °F 55.0 °F 81% 30.06 in 10.0 mi WNW 6.9 mph - N/A   Clear
6:14 AM 60.6 °F 55.0 °F 82% 30.06 in 10.0 mi WNW 6.9 mph - N/A   Clear
6:35 AM 61.2 °F 55.4 °F 81% 30.07 in 10.0 mi WNW 8.1 mph - N/A   Clear
6:54 AM 61.5 °F 55.4 °F 80% 30.07 in 10.0 mi WNW 6.9 mph - N/A   Clear
7:15 AM 61.9 °F 55.6 °F 80% 30.07 in 10.0 mi NW 6.9 mph - N/A   Clear
7:34 AM 62.8 °F 56.1 °F 79% 30.07 in 10.0 mi WNW 5.8 mph - N/A   Clear
7:54 AM 64.0 °F 55.9 °F 75% 30.07 in 10.0 mi NW 6.9 mph - N/A   Clear
8:15 AM 65.5 °F 55.4 °F 70% 30.07 in 10.0 mi NW 8.1 mph - N/A   Clear
8:34 AM 66.6 °F 55.6 °F 68% 30.08 in 10.0 mi NW 6.9 mph - N/A   Clear
8:54 AM 68.0 °F 56.1 °F 66% 30.08 in 10.0 mi NW 10.4 mph - N/A   Clear
9:15 AM 68.5 °F 55.0 °F 62% 30.07 in 10.0 mi NW 9.2 mph - N/A   Clear
9:34 AM 69.8 °F 55.9 °F 61% 30.08 in 10.0 mi NW 9.2 mph - N/A   Clear
9:54 AM 70.7 °F 55.4 °F 58% 30.08 in 10.0 mi NW 9.2 mph - N/A   Clear
10:15 AM 71.6 °F 54.0 °F 54% 30.08 in 10.0 mi NW 10.4 mph - N/A   Clear
10:34 AM 72.5 °F 54.7 °F 53% 30.08 in 10.0 mi NW 11.5 mph 17.3 mph N/A   Clear
10:54 AM 72.9 °F 54.1 °F 52% 30.07 in 10.0 mi NNW 10.4 mph 19.6 mph N/A   Clear
11:15 AM 73.6 °F 55.2 °F 53% 30.07 in 10.0 mi NNW 12.7 mph 17.3 mph N/A   Clear
11:34 AM 74.3 °F 53.6 °F 48% 30.07 in 10.0 mi NNW 13.8 mph - N/A   Clear
11:55 AM 75.0 °F 52.7 °F 46% 30.07 in 10.0 mi NNW 12.7 mph 18.4 mph N/A   Clear
12:14 PM 75.4 °F 52.9 °F 45% 30.07 in 10.0 mi NNW 13.8 mph 17.3 mph N/A   Clear
12:35 PM 75.6 °F 51.4 °F 43% 30.07 in 10.0 mi NNW 11.5 mph 17.3 mph N/A   Clear
12:54 PM 76.1 °F 51.6 °F 42% 30.07 in 10.0 mi NNW 9.2 mph - N/A   Clear
1:14 PM 76.5 °F 51.6 °F 42% 30.07 in 10.0 mi North 11.5 mph 16.1 mph N/A   Clear
1:34 PM 76.6 °F 52.2 °F 42% 30.06 in 10.0 mi North 6.9 mph 16.1 mph N/A   Clear
1:54 PM 77.2 °F 53.4 °F 44% 30.06 in 10.0 mi NNW 11.5 mph - N/A   Clear
2:15 PM 77.4 °F 53.4 °F 43% 30.06 in 10.0 mi NW 6.9 mph - N/A   Scattered Clouds
2:34 PM 77.9 °F 51.4 °F 40% 30.06 in 10.0 mi NNW 10.4 mph - N/A   Scattered Clouds
2:55 PM 78.4 °F 52.0 °F 40% 30.06 in 10.0 mi NW 6.9 mph - N/A   Scattered Clouds
3:14 PM 78.8 °F 53.2 °F 41% 30.05 in 10.0 mi NW 9.2 mph - N/A   Scattered Clouds
3:35 PM 78.4 °F 52.0 °F 40% 30.05 in 10.0 mi WNW 9.2 mph 17.3 mph N/A   Scattered Clouds
3:54 PM 78.1 °F 52.9 °F 41% 30.05 in 10.0 mi NNW 8.1 mph - N/A   Mostly Cloudy
4:14 PM 77.9 °F 52.9 °F 42% 30.05 in 10.0 mi NW 4.6 mph - N/A   Mostly Cloudy
4:35 PM 78.8 °F 52.5 °F 40% 30.04 in 10.0 mi NNW 4.6 mph - N/A   Mostly Cloudy
4:54 PM 79.0 °F 52.9 °F 40% 30.04 in 10.0 mi WNW 8.1 mph - N/A   Scattered Clouds
5:15 PM 79.2 °F 51.3 °F 38% 30.03 in 10.0 mi West 6.9 mph - N/A   Mostly Cloudy
5:34 PM 78.8 °F 50.5 °F 37% 30.03 in 10.0 mi NW 5.8 mph - N/A   Scattered Clouds
5:54 PM 78.8 °F 51.3 °F 38% 30.03 in 10.0 mi WNW 6.9 mph - N/A   Scattered Clouds
6:14 PM 78.8 °F 51.8 °F 39% 30.03 in 10.0 mi NW 6.9 mph - N/A   Scattered Clouds
6:34 PM 78.3 °F 52.2 °F 40% 30.02 in 10.0 mi NW 5.8 mph - N/A   Scattered Clouds
6:54 PM 78.1 °F 52.3 °F 41% 30.02 in 10.0 mi NW 5.8 mph - N/A   Clear
7:15 PM 77.7 °F 53.1 °F 42% 30.02 in 10.0 mi WNW 4.6 mph - N/A   Clear
7:35 PM 77.0 °F 54.7 °F 46% 30.02 in 10.0 mi WNW 3.5 mph - N/A   Clear
7:54 PM 76.1 °F 56.3 °F 50% 30.02 in 10.0 mi WNW 3.5 mph - N/A   Clear
8:14 PM 74.8 °F 59.5 °F 59% 30.02 in 10.0 mi Calm Calm - N/A   Clear
8:35 PM 73.4 °F 60.6 °F 64% 30.02 in 10.0 mi WNW 3.5 mph - N/A   Clear
8:54 PM 72.5 °F 59.2 °F 63% 30.03 in 10.0 mi Calm Calm - N/A   Clear
9:14 PM 71.1 °F 59.0 °F 66% 30.02 in 10.0 mi WNW 3.5 mph - N/A   Clear
9:35 PM 69.8 °F 58.3 °F 67% 30.03 in 10.0 mi WNW 3.5 mph - N/A   Clear
9:55 PM 69.3 °F 58.8 °F 69% 30.04 in 10.0 mi Calm Calm - N/A   Clear
10:14 PM 68.4 °F 59.5 °F 73% 30.04 in 10.0 mi Calm Calm - N/A   Clear
10:34 PM 67.5 °F 59.4 °F 75% 30.06 in 10.0 mi Calm Calm - N/A   Clear
10:55 PM 66.9 °F 59.5 °F 77% 30.06 in 10.0 mi Calm Calm - N/A   Clear
11:14 PM 66.6 °F 58.3 °F 75% 30.06 in 10.0 mi Calm Calm - N/A   Clear
11:35 PM 65.5 °F 59.2 °F 80% 30.07 in 10.0 mi Calm Calm - N/A   Clear
11:54 PM 64.8 °F 59.2 °F 82% 30.07 in 7.0 mi Calm Calm - N/A   Clear